[Iaude] MPEC W151: 2022 KX37 [a=2.18,e=0.41,i=5.2,H=21.3]
    mpec at marsden.cfa.harvard.edu 
    mpec at marsden.cfa.harvard.edu
       
    Wed Nov 29 16:35:23 EST 2023
    
    
  
M.P.E.C. 2023-W151                            Issued 2023 November 29, 21:33 UT
     The Minor Planet Electronic Circulars contain information on unusual
         minor planets, routine data on comets and natural satellites,
         and occasional editorial announcements.  They are published
    on behalf of Division F of the International Astronomical Union by the
          Minor Planet Center, Smithsonian Astrophysical Observatory,
                          Cambridge, MA 02138, U.S.A.
			  
             Prepared using the Tamkin Foundation Computer Network
                              MPC at CFA.HARVARD.EDU
            URL https://www.minorplanetcenter.net/    ISSN 1523-6714
                                   2022 KX37                                    
     The following astrometry was found among the isolated tracklets and linked
by A. Doppler.
Observations:
     K22K37X* C2022 05 24.39116715 44 05.832-02 18 50.84         21.15wUEW151F52
     K22K37X  C2022 05 24.40275815 44 05.375-02 18 44.68         21.23wUEW151F52
     K22K37X  C2022 05 24.42608715 44 04.434-02 18 32.86         21.02wUEW151F52
     K22K37X  C2022 05 29.31323915 41 29.018-01 41 08.20         20.82GVEW151G96
     K22K37X  C2022 05 29.31845715 41 28.784-01 41 05.86         21.46GVEW151G96
     K22K37X  C2022 05 29.32369215 41 28.590-01 41 03.73         21.00GVEW151G96
     K22K37X  C2022 05 29.32892515 41 28.435-01 41 02.18         21.00GVEW151G96
     K22K37X  C2022 06 03.41828015 39 02.744-01 12 38.11         21.05wUEW151F52
     K22K37X  C2022 06 03.42971515 39 02.365-01 12 35.08         21.01wUEW151F52
     K22K37X  C2022 06 03.44123115 39 01.975-01 12 31.97         20.99wUEW151F52
     K22K37X  C2022 06 03.45272515 39 01.586-01 12 28.97         21.15wUEW151F52
     K22K37X  C2022 06 23.32556015 37 11.737-01 30 56.51         21.32wUEW151F52
     K22K37X  C2022 06 23.32619115 37 11.734-01 30 56.48         21.21wUEW151F52
     K22K37X  C2022 06 23.33767715 37 11.877-01 31 00.98         21.46wUEW151F52
     K22K37X  C2022 06 23.33830815 37 11.881-01 31 01.19         21.37wUEW151F52
     K22K37X  C2022 06 23.34973015 37 12.019-01 31 05.57         21.25wUEW151F52
     K22K37X  C2022 06 23.35036015 37 12.026-01 31 05.69         21.40wUEW151F52
     K22K37X  C2022 06 23.36179415 37 12.165-01 31 10.15         21.39wUEW151F52
     K22K37X  C2022 06 23.36242415 37 12.175-01 31 10.51         21.17wUEW151F52
Observer details:
F52 Pan-STARRS 2, Haleakala.  Observers J. Bulger, T. Lowe, A. Schultz, I.
    Smith.  Measurers K. Chambers, S. Chastel, T. de Boer, J. Fairlamb, H.
    Gao, M. Huber, C.-C. Lin, E. Magnier, Y. Ramanjooloo, R. Wainscoat, R.
    Weryk.  1.8-m Ritchey-Chretien + CCD.
G96 Mt. Lemmon Survey.  Observer G. J. Leonard.  Measurers E. J. Christensen,
    D. Fay, J. B. Fazekas, D. C. Fuls, A. R. Gibbs, A. D. Grauer, H. Groeller,
    J. K. Hogan, R. A. Kowalski, S. M. Larson, G. J. Leonard, D. Rankin, R. L.
    Seaman, A. Serrano, F. C. Shelly, K. W. Wierzchos.  1.5-m reflector + 10K
    CCD.
Orbital elements:
2022 KX37                                                Earth MOID = 0.2761 AU
Epoch 2023 Sept. 13.0 TT = JDT 2460200.5                Veres                   
M 124.73590              (2000.0)            P               Q                  
n   0.30581419     Peri.  133.26569     +0.36617888     +0.92992545             
a   2.1818805      Node   158.14498     -0.87798866     +0.35735059             
e   0.4121002      Incl.    5.23057     -0.30830009     +0.08682869             
P   3.22           H   21.38          G   0.15           U   6                  
Residuals in seconds of arc
220524 F52  0.0   0.1-    220603 F52  0.1-  0.1-    220623 F52  0.0   0.0
220524 F52  0.1+  0.1+    220603 F52  0.0   0.0     220623 F52  0.0   0.0
220524 F52  0.1-  0.0     220603 F52  0.0   0.1+    220623 F52  0.0   0.1+
220529 G96  0.3+  0.2-    220603 F52  0.0   0.0     220623 F52  0.0   0.0
220529 G96  0.3-  0.1+    220623 F52  0.1+  0.1-    220623 F52  0.1+  0.1-
220529 G96  0.2-  0.1+    220623 F52  0.1-  0.2+
220529 G96  0.4+  0.5-    220623 F52  0.0   0.0
Ephemeris:
2022 KX37                a,e,i = 2.18, 0.41, 5                   q = 1.2827
Date    TT    R. A. (2000) Decl.     Delta      r    Elong.  Phase     V
2023 10 30    07 28 31.2 +16 16 33   2.5553  2.9658   104.6    18.9    26.7
...
2023 11 14    07 28 29.3 +15 54 54   2.3763  2.9902   119.5    16.7    26.5
...
2023 11 22    07 26 02.8 +15 49 12   2.2907  3.0021   128.0    15.0    26.4
...
2023 11 28    07 23 05.5 +15 47 57   2.2332  3.0104   134.7    13.5    26.3
2023 11 29    07 22 30.4 +15 47 59   2.2243  3.0118   135.9    13.2    26.3
2023 11 30    07 21 53.8 +15 48 06   2.2155  3.0131   137.0    12.9    26.3
...
2023 12 06    07 17 42.3 +15 50 21   2.1676  3.0208   144.0    11.1    26.1
...
2023 12 14    07 10 49.0 +15 57 18   2.1171  3.0304   153.5     8.3    26.0
...
2023 12 29    06 55 02.4 +16 20 41   2.0713  3.0460   170.8     3.0    25.7
M. P. C. Staff               (C) Copyright 2023 MPC           M.P.E.C. 2023-W151
    
    
More information about the Iaude
mailing list